Powrót do katalogu

COSMOS 2251 DEB

AktywnyLEO
NORAD 35580·DEBRIS·🇷🇺 Russia

Wystrzelony Jun 16, 1993 z Plesetsk Cosmodrome

Loading…

Następne Przeloty (najbliższe 24 godziny)

TLE

Starzejące sięSource: Space-Track

Epoka: Sep 12, 2026, 04:25 UTC

1 35580U 93036ALX 26255.18437181  .00000783  00000-0  52528-3 0  9998
2 35580  73.8984  73.2377 0280777  26.6072 334.9151 13.84917428660415

Śledź COSMOS 2251 DEB w czasie rzeczywistym z AllMySat

Download on the App Store